Location: Newark
(33.4453°N, 112.0669°W)
Time: 19:53:58
(UTC+00:00)

Explorer 7 - Pass Details

Date: 25 February 2020
Orbit: 485 x 679 km, 50.3° (Epoch: 30 March)

Event Time Altitude Azimuth Distance (km) Brightness Sun altitude
Rises 02:25:58 0° 293° (WNW) 2,672 11.6 -14.4°
Reaches altitude 10° 02:28:58 10° 270° (W) 1,741 10.8 -15.0°
Maximum altitude 02:31:17 15° 234° (SW) 1,415 9.7 -15.5°
Drops below altitude 10° 02:33:33 10° 197° (SSW) 1,688 9.5 -16.0°
Sets 02:36:24 0° 173° (S) 2,545 10.2 -16.5°
